Tracking 18957 objects as of 23-Jan-2018
HD Live streaming from Space Station
objects crossing your sky now

GLOBALSTAR M097

Track GLOBALSTAR M097 now!
10-day predictions
GLOBALSTAR M097 is classified as:


NORAD ID: 39072
Int'l Code: 2013-005A
Perigee: 1,419.6 km
Apogee: 1,421.9 km
Inclination: 52.0 °
Period: 114.1 minutes
Semi major axis: 7791 km
RCS: 3.8399 m2 (large)
Launch date: February 6, 2013
Source: Globalstar (GLOB)
Launch site: TYURATAM MISSILE AND SPACE COMPLEX (TTMTR)

GLOBALSTAR M097 is part of Globalstar's second-generation satellite fleet, which began launching in 2010.
aabbcc
Your satellite tracking list
Your tracking list is empty




NASA's NSSDC Master Catalog

Two Line Element Set (TLE):
1 39072U 13005A   18022.88920988 -.00000105 +00000-0 -45392-5 0  9991
2 39072 052.0020 220.5340 0001514 076.6964 283.4071 12.62265075229629
Source of the keplerian elements: AFSPC